Location: *
(33.6842°N, 117.7925°W)
Time: 03:35:04
(UTC+00:00)

Cosmos 44 - Pass Details

Date: 21 October 2019
Orbit: 593 x 769 km, 65.1° (Epoch: 18 November)

Event Time Altitude Azimuth Distance (km) Brightness Sun altitude
Exits shadow 12:59:57 21° 275° (W) 1,350 4.1 -13.3°
Maximum altitude 13:01:09 24° 249° (WSW) 1,247 4.1 -13.1°
Drops below altitude 10° 13:04:37 10° 196° (SSW) 1,925 5.5 -12.4°
Sets 13:07:12 0° 182° (S) 2,838 6.5 -11.8°
